Tracking 18852 objects as of 23-Nov-2017
HD Live streaming from Space Station
objects crossing your sky now

FENGYUN 1C DEB

Track FENGYUN 1C DEB now!
10-day predictions


NORAD ID: 30817
Int'l Code: 1999-025AVB
Perigee: 858.0 km
Apogee: 956.4 km
Inclination: 99.0 °
Period: 103.0 minutes
Semi major axis: 7278 km
RCS: 0.0075 m2 (small)
Launch date: May 10, 1999
Source: People's Republic of China (PRC)
Launch site: Taiyaun Space Center, China (TSC)

Note: This is SATELLITE DEBRIS
aabbcc
Your satellite tracking list
Your tracking list is empty




NASA's NSSDC Master Catalog

Two Line Element Set (TLE):
1 30817U 99025AVB 17326.37977060  .00000486  00000-0  36439-3 0  9998
2 30817  98.9966  17.6912 0067577 116.9198 305.1669 13.98188146548355
Source of the keplerian elements: AFSPC